PORT of CHALKI

Ülke: Greece Ülke: Greece (GR)
Enlem / Boylam: 36.221375° / 27.615645° Haritada Göster Haritada Göster
Yerel Zaman:  UTC +3
UN/LOCODE: GRHAL

Limandaki Gemiler


Kayıt Bulunamadı

Son Varış ve Kalkışlar


Gemi Adı
Varış (UTC)
Varış (LT)
Kalkış (UTC)
Kalkış (LT)
Vessel Type: Yolcu Gemileri  PREVELIS 2014-09-02 19:36:00 2014-09-02 22:36:00 2014-09-02 19:53:00 2014-09-02 22:53:00
Vessel Type: Yolcu Gemileri  FEDON 2014-09-02 15:01:00 2014-09-02 18:01:00
Vessel Type: Yüksek Hızlı Tekne  DODEKANISOS EXPRESS 2014-09-02 13:29:00 2014-09-02 16:29:00 2014-09-02 13:40:00 2014-09-02 16:40:00
Vessel Type: Yolcu Gemileri  FEDON 2014-09-02 07:10:00 2014-09-02 10:10:00 2014-09-02 13:04:00 2014-09-02 16:04:00
Vessel Type: Yolcu Gemileri  PREVELIS 2014-09-02 12:30:00 2014-09-02 15:30:00 2014-09-02 12:51:00 2014-09-02 15:51:00
Vessel Type: Yatlar ve Diğerleri  ELLIX TOO 2014-09-01 14:51:00 2014-09-01 17:51:00 2014-09-02 05:56:00 2014-09-02 08:56:00
Vessel Type: Yolcu Gemileri  FEDON 2014-09-01 07:17:00 2014-09-01 10:17:00 2014-09-01 13:03:00 2014-09-01 16:03:00
Vessel Type: Yolcu Gemileri  FEDON 2014-08-31 17:10:00 2014-08-31 20:10:00 2014-09-01 03:32:00 2014-09-01 06:32:00
Vessel Type: Yolcu Gemileri  FEDON 2014-08-31 14:52:00 2014-08-31 17:52:00 2014-08-31 15:18:00 2014-08-31 18:18:00
Vessel Type: Yolcu Gemileri  FEDON 2014-08-31 09:23:00 2014-08-31 12:23:00 2014-08-31 13:09:00 2014-08-31 16:09:00

Beklenen Varışlar


Gemi Adı
Scheduled Arrival (UTC)
Planlanmış Varış (Yerel Zaman)
Tahmini Varış (UTC)
Tahmini Varış (Yerel Zaman)
Kayıt Bulunamadı

Wind Forecast


    
Saat (UTC)
Hız
Direction
Temperature
2014-09-02 21:00:00 4 knots 262° 25°C
2014-09-03 00:00:00 5 knots 190° 25°C
2014-09-03 03:00:00 8 knots 185° 25°C
2014-09-03 06:00:00 9 knots 199° 25°C
2014-09-03 09:00:00 9 knots 204° 25°C
2014-09-03 12:00:00 12 knots 186° 27°C
2014-09-03 15:00:00 14 knots 159° 27°C
2014-09-03 18:00:00 15 knots 154° 26°C
2014-09-03 21:00:00 13 knots 165° 25°C
2014-09-04 00:00:00 8 knots 176° 25°C
2014-09-04 03:00:00 4 knots 193° 24°C
2014-09-04 06:00:00 4 knots 221° 24°C
2014-09-04 09:00:00 7 knots 251° 24°C
2014-09-04 12:00:00 10 knots 272° 23°C
2014-09-04 15:00:00 9 knots 284° 23°C
2014-09-04 18:00:00 8 knots 281° 24°C
2014-09-04 21:00:00 9 knots 285° 24°C